Location: Hilton Head Island
(32.2163°N, 80.7526°W)
Time: 15:51:12
(UTC-05:00)

Explorer 11/Cluster Stage 4 - Pass Details

Date: 20 February 2026
Orbit: 463 x 1176 km, 28.8° (Epoch: 6 March)

Event Time Altitude Azimuth Distance (km) Brightness Sun altitude
Rises 17:40:45 0° 257° (WSW) 2,475 12.0 5.9°
Reaches altitude 10° 17:45:02 10° 208° (SSW) 1,610 9.0 5.0°
Maximum altitude 17:45:17 10° 204° (SSW) 1,609 8.9 5.0°
Drops below altitude 10° 17:45:32 10° 200° (SSW) 1,616 8.8 4.9°
Sets 17:49:59 0° 152° (SSE) 2,589 9.1 4.0°
